Location: C�an Torras
(41.5052°N, 1.9280°E)
Time: 02:07:18
(UTC+00:00)

NOAA 11 - Pass Details

Date: 20 January 2021
Orbit: 832 x 850 km, 98.4° (Epoch: 08 March)

Event Time Altitude Azimuth Distance (km) Brightness Sun altitude
Rises 17:16:28 0° 159° (SSE) 3,399 7.4 -4.8°
Reaches altitude 10° 17:18:50 10° 157° (SSE) 2,469 6.6 -5.2°
Maximum altitude 17:24:17 72° 74° (ENE) 896 4.2 -6.1°
Drops below altitude 10° 17:29:47 10° 351° (N) 2,484 6.5 -7.1°
Sets 17:32:10 0° 350° (N) 3,423 7.3 -7.5°
